Regional Weather Roundup
Issued by NWS

Home | Current Version | Previous Version | Graphics & Text | Print | Product List | Glossary On
Versions: 1 2 3 4 5 6 7 8 9 10 11 12 13 14 15 16 17 18 19 20 21 22 23 24 25 26 27 28 29 30 31 32 33 34 35 36 37 38 39 40 41 42 43 44 45 46 47 48 49 50
000
ASUS43 KLMK 231402
RWRKY
KENTUCKY REGIONAL WEATHER ROUNDUP
NATIONAL WEATHER SERVICE LOUISVILLE KY
900 AM EST MON JAN 23 2017

NOTE "FAIR" INDICATES FEW OR NO CLOUDS BELOW 12,000 FEET
WITH NO SIGNIFICANT WEATHER AND/OR OBSTRUCTIONS TO VISIBILITY.

KYZ001>023-026-027-061>063-070>075-231500-
WESTERN AND SOUTH CENTRAL KENTUCKY

CITY           SKY/WX    TMP DP  RH WIND       PRES   REMARKS
PADUCAH        CLOUDY    42  35  76 NW17G26   29.72R
HENDERSON      CLOUDY    43  36  75 N13G21    29.67R
OWENSBORO      CLOUDY    44  41  89 N13G22    29.63R
HOPKINSVILLE   CLOUDY    44  40  85 NW16G23   29.63R
BOWLING GREEN  CLOUDY    47  43  86 NW13G24   29.56R
GLASGOW        NOT AVBL
$$

KYZ024-025-028>034-038-045-046-053-231500-
NORTH CENTRAL KENTUCKY

CITY           SKY/WX    TMP DP  RH WIND       PRES   REMARKS
LOUISVILLE/SDF CLOUDY    52  46  80 N22G30    29.53R
LOUISVILLE/LOU CLOUDY    51  46  83 N9G23     29.53R
FORT KNOX      CLOUDY    49  46  90 NW18G25   29.52R
$$

KYZ035>037-039>044-047>052-055>060-089>105-231500-
NORTHEAST KENTUCKY

CITY           SKY/WX    TMP DP  RH WIND       PRES   REMARKS
LEXINGTON      LGT RAIN  50  47  89 N20       29.45R
COVINGTON      LGT RAIN  45  44  97 N16       29.51R FOG
FRANKFORT      LGT RAIN  50  46  86 N14G21    29.47R
$$

KYZ054-064>069-076>088-106>120-231500-
SOUTHEAST KENTUCKY

CITY           SKY/WX    TMP DP  RH WIND       PRES   REMARKS
JACKSON        LGT RAIN  50  48  93 NE8       29.34R
LONDON         LGT RAIN  52  49  89 N9        29.36R
SOMERSET       RAIN      50  50 100 N13G22    29.41R
MIDDLESBORO    LGT RAIN  53  50  92 N5        29.32R
MONTICELLO     RAIN      52  50  93 N16G23    29.43R
$$





USA.gov is the U.S. government's official web portal to all federal, state and local government web resources and services.